Вернуться в каталог

STARLINK-35315

АктивенСвязьVLEO
NORAD 66543·PAYLOAD·🇺🇸 United States

Запущен Nov 19, 2025 с Cape Canaveral Space Force Station

Loading…

Ближайшие Пролёты (ближайшие 24 часа)

TLE

СвежийSource: CelesTrak SupGP

Эпоха: Sep 14, 2026, 22:50 UTC

1 66543C 25265AD  26257.95187500  .00029097  00000+0  10540-2 0  2576
2 66543  43.0020 289.3081 0001477 263.4774 180.3324 15.27561213    13

Отслеживайте STARLINK-35315 в реальном времени с AllMySat

Download on the App Store